User: anonymous   Login
Location: Hamburg
(53.5500°N, 10.0000°E)
Time: 00:32:53
(UTC+02:00)
Language:

Iridium 10 - Orbit

View from above orbital plane
View from above orbital plane
View from above satellite
View from above satellite

Ground track
Ground track

The orbit data is extracted from the following two-line orbital elements,

1 24839U 97030D   16127.56989778  .00000053  00000-0  11849-4 0  9996
2 24839  86.3966 160.0679 0002385  91.1668  61.6536 14.34219520988670
Epoch (UTC): 06 May 2016 13:40:39
Eccentricity: 0.0002385
inclination: 86.3966°
perigee height: 776 km
apogee height: 779 km
right ascension of ascending node: 160.0679°
argument of perigee: 91.1668°
revolutions per day: 14.34219520
mean anomaly at epoch: 61.6536°
orbit number at epoch: 98867

The dashed part of the orbit path shows where the satellite is in the earth's shadow,  

DLR